Location: Kampung Segan
(3.1399°N, 113.1002°E)
Time: 13:19:23
(UTC+00:00)

Nadezhda 1 Rocket - Pass Details

Date: 05 August 2024
Orbit: 941 x 1004 km, 83.0° (Epoch: 07 September)

Event Time Altitude Azimuth Distance (km) Brightness Sun altitude
Rises 21:48:11 0° 183° (S) 3,687 6.8 -9.9°
Reaches altitude 10° 21:50:42 10° 183° (S) 2,728 6.1 -9.3°
Maximum altitude 21:56:58 90° 260° (W) 970 4.0 -7.8°
Drops below altitude 10° 22:03:06 10° 3° (N) 2,677 6.6 -6.4°
Sets 22:05:34 0° 3° (N) 3,613 7.3 -5.8°
